Location: Flensburg
(54.6357°N, 9.5142°E)
Time: 17:11:23
(UTC+01:00)

N. Korean satellite - Visible Passes

Search period start: 19 November 2017 00:00
Search period end: 29 November 2017 00:00
Orbit: 460 x 515 km, 97.2° (Epoch: 18 November)

Date Brightness Start Highest point End Pass type
(mag) Time Alt. Az. Time Alt. Az. Time Alt. Az.
19 Nov 10.2 05:55:44 10° ENE 05:56:50 11° E 05:57:55 10° ESE visible
19 Nov 6.5 18:10:01 10° SSE 18:13:33 84° W 18:17:10 10° NNW visible
20 Nov 7.8 07:03:47 10° NNE 07:07:26 50° E 07:11:05 10° S visible
20 Nov 6.6 17:46:38 10° SSE 17:50:05 55° ENE 17:53:39 10° N visible
20 Nov 9.6 19:21:40 10° SW 19:23:58 16° W 19:26:18 10° NW visible
21 Nov 8.9 06:40:32 10° NNE 06:43:50 29° E 06:47:10 10° SSE visible
21 Nov 7.2 17:23:31 10° SE 17:26:43 32° ENE 17:29:58 10° N visible
21 Nov 8.7 18:57:13 10° SSW 19:00:17 27° W 19:03:24 10° NW visible
22 Nov 9.8 06:17:31 10° NE 06:20:11 18° E 06:22:51 10° SE visible
22 Nov 7.9 17:00:42 10° ESE 17:03:24 20° ENE 17:06:09 10° NNE visible
22 Nov 7.6 18:33:14 10° S 18:36:40 46° W 18:40:11 10° NNW visible
23 Nov 10.2 05:55:17 10° ENE 05:56:26 11° E 05:57:35 10° ESE visible
23 Nov 6.7 07:26:48 10° NNE 07:30:33 88° ESE 07:34:19 10° SSW visible
23 Nov 6.5 18:09:34 10° SSE 18:13:07 84° WSW 18:16:47 10° NNW visible
24 Nov 7.7 07:03:21 10° NNE 07:07:01 50° E 07:10:42 10° S visible
24 Nov 6.6 17:46:10 10° SSE 17:49:39 55° ENE 17:53:14 10° N visible
24 Nov 9.6 19:21:10 10° SW 19:23:32 17° W 19:25:56 10° NW visible
25 Nov 8.9 06:40:05 10° NNE 06:43:26 29° E 06:46:46 10° SSE visible
25 Nov 7.3 17:23:02 10° SE 17:26:15 32° ENE 17:29:34 10° N visible
25 Nov 8.7 18:56:44 10° SSW 18:59:50 27° W 19:03:00 10° NW visible
26 Nov 9.8 06:17:04 10° NE 06:19:45 18° E 06:22:25 10° SE visible
26 Nov 7.9 17:00:12 10° ESE 17:02:56 21° ENE 17:05:43 10° NNE visible
26 Nov 7.6 18:32:43 10° S 18:36:12 47° W 18:39:46 10° NNW visible
27 Nov 10.2 05:54:48 10° ENE 05:55:59 11° E 05:57:10 10° ESE visible
27 Nov 6.7 07:26:19 10° NNE 07:30:06 87° ESE 07:33:53 10° SSW visible
27 Nov 6.6 18:09:03 10° SSE 18:12:39 84° W 18:16:21 10° NNW visible
27 Nov 10.2 19:46:39 10° W 19:46:50 10° W 19:47:00 10° W visible
28 Nov 7.7 07:02:52 10° NNE 07:06:34 50° E 07:10:14 10° S visible
28 Nov 6.6 17:45:37 10° SSE 17:49:09 55° ENE 17:52:47 10° N visible
28 Nov 9.6 19:20:36 10° SW 19:23:02 17° W 19:25:30 10° NW visible
